TimeCDT,TemperatureF,Dew PointF,Humidity,Sea Level PressureIn,VisibilityMPH,Wind Direction,Wind SpeedMPH,Gust SpeedMPH,PrecipitationIn,Events,Conditions,WindDirDegrees,DateUTC
12:53 AM,75.9,73.0,91,29.78,10.0,North,6.9,-,N/A,,Clear,350,2013-09-24 05:53:00
1:53 AM,75.0,72.0,90,29.78,10.0,North,5.8,-,N/A,,Scattered Clouds,350,2013-09-24 06:53:00
2:53 AM,75.0,72.0,90,29.78,9.0,NNW,6.9,-,N/A,,Clear,340,2013-09-24 07:53:00
3:53 AM,75.9,73.0,91,29.78,9.0,NNW,6.9,-,N/A,,Mostly Cloudy,340,2013-09-24 08:53:00
4:53 AM,75.9,73.0,91,29.78,9.0,North,5.8,-,N/A,,Overcast,360,2013-09-24 09:53:00
5:43 AM,75.2,71.6,89,29.79,10.0,North,9.2,-,N/A,,Overcast,350,2013-09-24 10:43:00
5:53 AM,75.9,72.0,87,29.79,10.0,North,9.2,-,N/A,,Overcast,350,2013-09-24 10:53:00
6:02 AM,75.2,71.6,89,29.79,10.0,North,8.1,-,N/A,,Overcast,350,2013-09-24 11:02:00
6:10 AM,75.2,71.6,89,29.79,10.0,North,8.1,-,N/A,,Overcast,350,2013-09-24 11:10:00
6:49 AM,75.2,71.6,89,29.81,10.0,NNW,6.9,-,N/A,,Overcast,340,2013-09-24 11:49:00
6:53 AM,75.9,72.0,87,29.81,10.0,NNW,5.8,-,N/A,,Overcast,330,2013-09-24 11:53:00
7:07 AM,75.2,71.6,89,29.82,10.0,NNW,6.9,-,N/A,,Overcast,340,2013-09-24 12:07:00
7:53 AM,75.0,72.0,90,29.83,8.0,North,8.1,-,N/A,,Partly Cloudy,350,2013-09-24 12:53:00
8:53 AM,79.0,73.9,84,29.84,10.0,North,6.9,-,N/A,,Clear,10,2013-09-24 13:53:00
9:53 AM,82.9,75.0,77,29.86,10.0,North,12.7,-,N/A,,Clear,360,2013-09-24 14:53:00
10:53 AM,86.0,75.0,70,29.86,10.0,North,12.7,-,N/A,,Partly Cloudy,350,2013-09-24 15:53:00
11:53 AM,89.1,73.0,59,29.86,10.0,North,16.1,-,N/A,,Mostly Cloudy,10,2013-09-24 16:53:00
12:53 PM,91.0,72.0,53,29.85,10.0,North,15.0,-,N/A,,Partly Cloudy,350,2013-09-24 17:53:00
1:53 PM,91.0,71.1,52,29.83,10.0,NNW,11.5,-,N/A,,Partly Cloudy,340,2013-09-24 18:53:00
2:53 PM,91.9,69.1,47,29.81,10.0,North,9.2,-,N/A,,Partly Cloudy,360,2013-09-24 19:53:00
3:53 PM,93.0,68.0,44,29.80,10.0,North,11.5,-,N/A,,Clear,350,2013-09-24 20:53:00
4:53 PM,93.9,66.0,40,29.78,10.0,NNW,12.7,-,N/A,,Clear,340,2013-09-24 21:53:00
5:53 PM,93.0,68.0,44,29.78,10.0,North,8.1,-,N/A,,Clear,360,2013-09-24 22:53:00
6:53 PM,88.0,69.1,53,29.79,10.0,NNW,5.8,-,N/A,,Clear,340,2013-09-24 23:53:00
7:53 PM,82.0,71.1,69,29.80,10.0,Calm,Calm,-,N/A,,Clear,0,2013-09-25 00:53:00
8:53 PM,80.1,75.9,87,29.82,9.0,SE,4.6,-,N/A,,Clear,140,2013-09-25 01:53:00
9:53 PM,80.1,77.0,90,29.83,7.0,Calm,Calm,-,N/A,,Clear,0,2013-09-25 02:53:00
10:53 PM,78.1,75.0,90,29.84,7.0,SSE,3.5,-,N/A,,Clear,160,2013-09-25 03:53:00
11:53 PM,79.0,77.0,94,29.84,6.0,Calm,Calm,-,N/A,,Clear,0,2013-09-25 04:53:00